Cincinnati, OH

1:31 PM EST on December 08, 2019 (GMT -0500)
Cincinnati Municipal-Lunken

Weather History for KLUK - September, 2019

Change the Weather History Date:

Saturday, September 7, 2019

  Actual Average Record
Temperature  
Mean Temperature 70 °F -  
Max Temperature 78 °F 82 °F 96 °F (1964)
Min Temperature 61 °F 60 °F 42 °F (1962)
Cooling Degree Days 4    
Growing Degree Days 20 (Base 50)    
Moisture  
Dew Point 62 °F    
Average Humidity 81    
Maximum Humidity 97    
Minimum Humidity 58    
Precipitation  
Precipitation 0.00 in - - ()
Sea Level Pressure  
Sea Level Pressure 30.00 in    
Wind  
Wind Speed 5 mph ()    
Max Wind Speed 13 mph    
Max Gust Speed -    
Visibility 9.6 miles    
Events Rain    
Averages and records for this station are not official NWS values.
T = Trace of Precipitation, MM = Missing Value Source: Averaged Metar Reports

Daily Weather History Graph

Daily Weather History Graph

Search for Another Location

Airport or City:

Astronomy

Sep. 07, 2019 Rise Set
Actual Time 7:11 AM EDT 7:59 PM EDT
Civil Twilight 6:44 AM EDT 8:26 PM EDT
Nautical Twilight 6:12 AM EDT 8:58 PM EDT
Astronomical Twilight 5:39 AM EDT 9:31 PM EDT
Moon 4:12 PM EDT (9/7) 1:04 AM EDT (9/7)
Length of Visible Light 13h 41m
Length of Day
12h 47m
Waxing Gibbous, 65% of the Moon is Illuminated
Sep 7
Waxing Gibbous
Sep 14
Full
Sep 21
Last Quarter
Sep 28
New
Oct 5
First Quarter

Hourly Weather History & Observations

Time (EDT) Temp. Dew Point Humidity Pressure Visibility Wind Dir Wind Speed Gust Speed Precip Events Conditions
12:04 AM 71.1 °F 64.9 °F 81% 29.95 in 10.0 mi NW 12.7 mph - N/A   Mostly Cloudy
12:53 AM 70.0 °F 63.0 °F 78% 29.94 in 10.0 mi NNW 10.4 mph - N/A   Mostly Cloudy
1:53 AM 69.1 °F 61.0 °F 75% 29.95 in 10.0 mi North 11.5 mph - N/A   Overcast
2:53 AM 66.0 °F 60.1 °F 81% 29.96 in 10.0 mi North 9.2 mph - N/A   Clear
3:53 AM 64.0 °F 60.1 °F 87% 29.96 in 10.0 mi Calm Calm - N/A   Clear
4:30 AM 64.0 °F 61.0 °F 90% 29.98 in 10.0 mi Calm Calm - N/A   Mostly Cloudy
4:53 AM 66.0 °F 61.0 °F 84% 29.97 in 10.0 mi Variable 4.6 mph - N/A   Overcast
5:53 AM 66.0 °F 61.0 °F 84% 29.98 in 10.0 mi NW 6.9 mph - N/A   Overcast
6:53 AM 66.0 °F 61.0 °F 84% 29.99 in 10.0 mi NNW 3.5 mph - N/A   Overcast
7:53 AM 66.0 °F 62.1 °F 87% 30.01 in 10.0 mi WNW 4.6 mph - N/A   Overcast
8:53 AM 64.9 °F 63.0 °F 93% 30.02 in 5.0 mi Calm Calm - 0.00 in Rain Light Rain
9:53 AM 66.0 °F 64.0 °F 93% 30.04 in 7.0 mi Calm Calm - 0.00 in   Overcast
10:53 AM 68.0 °F 63.0 °F 84% 30.04 in 7.0 mi Calm Calm - N/A   Overcast
11:53 AM 68.0 °F 63.0 °F 84% 30.05 in 10.0 mi WNW 4.6 mph - 0.00 in   Overcast
12:53 PM 70.0 °F 63.0 °F 78% 30.04 in 10.0 mi Calm Calm - N/A   Overcast
1:53 PM 70.0 °F 62.1 °F 76% 30.04 in 10.0 mi West 5.8 mph - N/A   Overcast
2:53 PM 73.9 °F 62.1 °F 66% 30.02 in 10.0 mi WSW 8.1 mph - N/A   Mostly Cloudy
3:53 PM 75.9 °F 61.0 °F 60% 30.00 in 10.0 mi SW 3.5 mph - N/A   Mostly Cloudy
4:53 PM 75.9 °F 60.1 °F 58% 30.00 in 10.0 mi SW 3.5 mph - N/A   Mostly Cloudy
5:53 PM 73.9 °F 60.1 °F 62% 30.00 in 10.0 mi SW 4.6 mph - N/A   Partly Cloudy
6:53 PM 72.0 °F 63.0 °F 73% 30.01 in 10.0 mi Calm Calm - N/A   Clear
7:53 PM 69.1 °F 64.0 °F 84% 30.01 in 10.0 mi Calm Calm - 0.00 in   Partly Cloudy
8:53 PM 64.9 °F 61.0 °F 87% 30.02 in 10.0 mi Calm Calm - 0.00 in   Partly Cloudy
9:53 PM 64.9 °F 61.0 °F 87% 30.04 in 10.0 mi East 3.5 mph - N/A   Partly Cloudy
10:53 PM 64.0 °F 61.0 °F 90% 30.04 in 10.0 mi Calm Calm - N/A   Clear
11:53 PM 61.0 °F 60.1 °F 97% 30.05 in 10.0 mi Calm Calm - N/A   Clear